Location: Arroyo de Valdeoliva
(40.1604°N, 4.9878°W)
Time: 21:33:10
(UTC+00:00)

Cosmos 2219 - Pass Details

Date: 11 December 2025
Orbit: 831 x 860 km, 71.1° (Epoch: 11 January)

Event Time Altitude Azimuth Distance (km) Brightness Sun altitude
Rises 18:06:55 0° 345° (NNW) 3,434 6.3 -13.5°
Reaches altitude 10° 18:09:42 10° 356° (N) 2,498 5.5 -14.0°
Maximum altitude 18:14:42 30° 57° (ENE) 1,503 4.0 -14.9°
Enters shadow 18:18:10 17° 107° (ESE) 2,047 4.7 -15.5°
